FW8952 Weather Reports


time (UTC)temp
C
wind
direction
speed
KPH
gust
KPH
rain 1hr
cm
rain 24hr
cm
rain mn
cm
humidity
%
barometer
mb
20240222101600 14 0 0.0 1.6 0.00 0.00 0.00 68 1019.5
20240222100059 13 0 0.0 1.6 0.00 0.00 0.00 69 1019.5
20240222094554 14 0 0.0 1.6 0.00 0.00 0.00 69 1019.6
20240222093056 14 0 0.0 1.6 0.00 0.00 0.00 67 1019.8
20240222091600 15 0 0.0 1.6 0.00 0.00 0.00 64 1019.6
20240222090102 15 0 0.0 0.0 0.00 0.00 0.00 62 1019.7
20240222084611 15 0 0.0 0.0 0.00 0.00 0.00 61 1019.8
20240222083120 13 0 0.0 1.6 0.00 0.00 0.00 64 1019.9
20240222081604 12 0 0.0 0.0 0.00 0.00 0.00 69 1019.9
20240222080057 10 0 0.0 1.6 0.00 0.00 0.00 70 1019.8
20240222074603 10 0 0.0 1.6 0.00 0.00 0.00 72 1019.8
20240222073103 8 0 0.0 1.6 0.00 0.00 0.00 75 1019.8
20240222071559 8 0 0.0 1.6 0.00 0.00 0.00 75 1019.9
20240222070100 8 0 0.0 0.0 0.00 0.00 0.00 79 1019.9
20240222064556 7 0 0.0 0.0 0.00 0.00 0.00 83 1019.7
20240222063100 6 0 0.0 0.0 0.00 0.00 0.00 84 1019.8
20240222061556 5 0 0.0 0.0 0.00 0.00 0.00 84 1019.6
20240222060056 5 0 0.0 0.0 0.00 0.00 0.00 84 1019.6
20240222054555 5 0 0.0 0.0 0.00 0.00 0.00 84 1019.6
20240222053055 5 0 0.0 1.6 0.00 0.00 0.00 83 1019.6
20240222051556 6 0 0.0 0.0 0.00 0.00 0.00 82 1019.6
20240222050054 6 0 0.0 1.6 0.00 0.00 0.00 83 1019.7
20240222044556 6 0 0.0 0.0 0.00 0.00 0.00 82 1019.8
20240222043103 6 0 0.0 1.6 0.00 0.00 0.00 82 1019.9
20240222041600 6 0 0.0 1.6 0.00 0.00 0.00 82 1019.8
20240222040101 6 0 0.0 1.6 0.00 0.00 0.00 82 1019.7
20240222034559 6 0 0.0 1.6 0.00 0.00 0.00 82 1019.7
20240222033104 6 0 0.0 1.6 0.00 0.00 0.00 82 1019.7
20240222031559 6 0 0.0 0.0 0.00 0.00 0.00 81 1019.9
20240222030104 6 0 0.0 1.6 0.00 0.00 0.00 81 1019.8
20240222024605 7 0 0.0 1.6 0.00 0.00 0.00 81 1019.9
20240222023109 7 0 0.0 1.6 0.00 0.00 0.00 81 1020.0
20240222021602 7 0 0.0 1.6 0.00 0.00 0.00 80 1020.1
20240222020057 7 0 0.0 0.0 0.00 0.00 0.00 80 1020.2
20240222014559 7 0 0.0 1.6 0.00 0.00 0.00 80 1020.2
20240222013102 7 0 0.0 0.0 0.00 0.00 0.00 80 1020.5
20240222011612 7 0 0.0 1.6 0.00 0.00 0.00 80 1020.6
20240222010103 7 0 0.0 1.6 0.00 0.00 0.00 80 1020.8
20240222004600 7 0 0.0 1.6 0.00 0.00 0.00 80 1020.9
20240222003106 7 0 0.0 1.6 0.00 0.00 0.00 80 1021.0
20240222001611 7 0 0.0 1.6 0.00 0.00 0.00 80 1021.2
20240222000107 7 0 0.0 1.6 0.00 0.00 0.00 78 1021.3
20240221234609 8 0 0.0 0.0 0.00 0.00 0.00 77 1021.5
20240221233111 8 0 0.0 0.0 0.00 0.00 0.00 77 1021.5
20240221231611 8 0 0.0 1.6 0.00 0.00 0.00 76 1021.4
20240221230111 8 0 0.0 1.6 0.00 0.00 0.00 76 1021.3
20240221224613 8 0 0.0 1.6 0.00 0.00 0.00 77 1021.3
20240221223113 9 0 0.0 0.0 0.00 0.00 0.00 76 1021.4
20240221221627 9 0 0.0 1.6 0.00 0.00 0.00 75 1021.5
20240221220057 9 0 0.0 3.2 0.00 0.00 0.00 75 1021.6
20240221214601 10 0 0.0 1.6 0.00 0.00 0.00 74 1021.6
20240221213058 10 0 0.0 1.6 0.00 0.00 0.00 74 1021.9
20240221211605 10 0 0.0 1.6 0.00 0.00 0.00 73 1021.8
20240221210101 10 0 0.0 0.0 0.00 0.00 0.00 70 1021.7
20240221204606 11 0 0.0 0.0 0.00 0.00 0.00 69 1021.8
20240221203107 11 0 0.0 0.0 0.00 0.00 0.00 68 1021.9
20240221201609 11 0 0.0 0.0 0.00 0.00 0.00 66 1021.8
20240221200108 11 0 0.0 0.0 0.00 0.00 0.00 64 1021.8
20240221194605 12 0 0.0 0.0 0.00 0.00 0.00 63 1021.6
20240221193102 12 0 0.0 0.0 0.00 0.00 0.00 62 1021.5
20240221191612 12 0 0.0 1.6 0.00 0.00 0.00 60 1021.6
20240221190101 13 0 0.0 1.6 0.00 0.00 0.00 56 1021.6
20240221184558 13 0 0.0 1.6 0.00 0.00 0.00 53 1021.4
20240221183112 12 0 0.0 3.2 0.00 0.00 0.00 58 1021.4
20240221181557 13 0 0.0 1.6 0.00 0.00 0.00 56 1021.3
20240221180057 13 0 0.0 4.8 0.00 0.00 0.00 56 1021.1
20240221174555 13 0 0.0 4.8 0.00 0.00 0.00 55 1021.0
20240221173056 13 0 0.0 6.4 0.00 0.00 0.00 53 1021.0
20240221171600 14 0 0.0 1.6 0.00 0.00 0.00 52 1020.9
20240221170055 15 269 0.0 1.6 0.00 0.00 0.00 48 1020.8
20240221164555 15 0 0.0 1.6 0.00 0.00 0.00 46 1020.6
20240221163056 16 0 0.0 1.6 0.00 0.00 0.00 45 1020.4
20240221161559 16 0 0.0 9.7 0.00 0.00 0.00 45 1020.4
20240221160106 16 0 0.0 1.6 0.00 0.00 0.00 45 1020.2
20240221154558 16 0 0.0 11.3 0.00 0.00 0.00 44 1020.2
20240221153057 16 150 0.0 8.0 0.00 0.00 0.00 45 1020.1
20240221151558 17 0 3.2 9.7 0.00 0.00 0.00 45 1020.3
20240221150055 17 0 0.0 16.1 0.00 0.00 0.00 44 1020.3
20240221144601 17 184 0.0 17.7 0.00 0.00 0.00 44 1020.4
20240221143054 17 0 1.6 14.5 0.00 0.00 0.00 44 1020.5
20240221141606 17 150 3.2 14.5 0.00 0.00 0.00 44 1020.6
20240221140053 17 192 3.2 17.7 0.00 0.00 0.00 44 1020.9
20240221134559 17 169 0.0 12.9 0.00 0.00 0.00 45 1020.9
20240221133054 16 0 0.0 11.3 0.00 0.00 0.00 47 1020.9
20240221131604 17 0 0.0 12.9 0.00 0.00 0.00 46 1021.0
20240221130102 17 0 0.0 11.3 0.00 0.00 0.00 47 1021.2
20240221124555 17 0 1.6 12.9 0.00 0.00 0.00 46 1021.4
20240221123055 17 0 0.0 11.3 0.00 0.00 0.00 48 1021.4
20240221121608 16 0 0.0 8.0 0.00 0.00 0.00 49 1021.4
20240221120056 16 160 3.2 14.5 0.00 0.00 0.00 48 1021.6
20240221114559 16 224 8.0 20.9 0.00 0.00 0.00 50 1021.7
20240221113102 16 0 6.4 19.3 0.00 0.00 0.00 51 1022.0
20240221111600 16 360 1.6 27.4 0.00 0.00 0.00 53 1022.3
20240221110055 15 126 9.7 20.9 0.00 0.00 0.00 53 1022.5
20240221104605 15 38 8.0 27.4 0.00 0.00 0.00 54 1022.7
20240221103103 15 173 8.0 22.5 0.00 0.00 0.00 54 1022.7